treatment,run,replicate,epoch_time,cycle,hour,initial_mass_g_no_biochar,initial_N_g_no_biochar,initial_C_g_no_biochar,NH3_mg,NH3N_mg_cycle,NH3N_mg_sum,NH3N_g_sum_per_g_initial_N_no_biochar,NH3N_g_sum_per_g_initial_dry_mass_no_biochar,CO2_mg,CO2C_mg_cycle,CO2C_mg_sum,CO2C_g_sum_per_g_initial_C_no_biochar,CO2C_g_sum_per_g_initial_dry_mass_no_biochar
BC,1,1,1487204086,1,8,249.60,11.39,88.14489,0.000182872,0.072188934,0.072188934,6.34E-06,2.89E-07,0.36560052,47.89074332,47.89074332,0.000543318,0.000191872
BC,1,1,1487232877,2,16,249.60,11.39,88.14489,0.000182872,0.072188934,0.144377868,1.27E-05,5.78E-07,0.44191872,57.88781697,105.7785603,0.001200053,0.000423797
BC,1,1,1487261669,3,24,249.60,11.39,88.14489,0.000166256,0.065629969,0.210007837,1.84E-05,8.41E-07,0.48480228,63.50522026,169.2837805,0.001920517,0.000678227
BC,1,1,1487290410,4,32,249.60,11.39,88.14489,0.000166256,0.065629969,0.275637806,2.42E-05,1.10E-06,0.55675944,72.93103256,242.2148131,0.002747917,0.000970422
BC,1,1,1487319252,5,40,249.60,11.39,88.14489,0.000166256,0.065629969,0.341267775,3.00E-05,1.37E-06,0.58074516,76.07297,318.2877831,0.003610961,0.001275204
BC,1,1,1487348044,6,48,249.60,11.39,88.14489,0.000166256,0.065629969,0.406897745,3.57E-05,1.63E-06,0.58546962,76.69183646,394.9796196,0.004481027,0.001582466
BC,1,1,1487376836,7,56,249.60,11.39,88.14489,0.000182872,0.072188934,0.479086679,4.21E-05,1.92E-06,0.60563943,79.33392021,474.3135398,0.005381067,0.001900314
BC,1,1,1487405627,8,64,249.60,11.39,88.14489,0.000166256,0.065629969,0.544716648,4.78E-05,2.18E-06,0.63471303,83.14232923,557.455869,0.006324313,0.002233419
BC,1,1,1487434420,9,72,249.60,11.39,88.14489,0.000182872,0.072188934,0.616905582,5.42E-05,2.47E-06,0.66941964,87.68861748,645.1444865,0.007319137,0.002584739
BC,1,1,1487463212,10,80,249.60,11.39,88.14489,0.000182872,0.072188934,0.689094516,6.05E-05,2.76E-06,0.70848729,92.80616709,737.9506536,0.008372019,0.002956563
BC,1,1,1487492003,11,88,249.60,11.39,88.14489,0.000182872,0.072188934,0.76128345,6.68E-05,3.05E-06,0.76663449,100.4229851,838.3736387,0.009511313,0.003358902
BC,1,1,1487520795,12,96,249.60,11.39,88.14489,0.000182872,0.072188934,0.833472383,7.32E-05,3.34E-06,0.83840994,109.8249949,948.1986336,0.010757273,0.003798911
BC,1,1,1487549587,13,104,249.60,11.39,88.14489,0.000166256,0.065629969,0.899102353,7.89E-05,3.60E-06,0.90473409,118.5129279,1066.711561,0.012101797,0.004273727
BC,1,1,1487578379,14,112,249.60,11.39,88.14489,0.000133025,0.05251204,0.951614392,8.35E-05,3.81E-06,0.94689081,124.035121,1190.746682,0.01350897,0.004770668
BC,1,1,1487607171,15,120,249.60,11.39,88.14489,0.000149641,0.059071004,1.010685397,8.87E-05,4.05E-06,0.98286939,128.7480271,1319.49471,0.014969611,0.00528649
BC,1,1,1487635962,16,128,249.60,11.39,88.14489,0.000132991,0.052498599,1.063183996,9.33E-05,4.26E-06,0.98414136,128.914645,1448.409355,0.016432142,0.00580298
BC,1,1,1487664754,17,136,249.60,11.39,88.14489,0.000116342,0.045926194,1.10911019,9.74E-05,4.44E-06,0.97560099,127.7959249,1576.20528,0.017881981,0.006314988
BC,1,1,1487693546,18,144,249.60,11.39,88.14489,0.000132991,0.052498599,1.161608789,0.000101985,4.65E-06,0.9521604,124.7253951,1700.930675,0.019296986,0.006814694
BC,1,1,1487722312,19,152,249.60,11.39,88.14489,0.000149607,0.059057564,1.220666353,0.00010717,4.89E-06,0.92581245,121.2740245,1822.204699,0.020672834,0.007300573
BC,1,1,1487751129,20,160,249.60,11.39,88.14489,0.000166222,0.065616529,1.286282881,0.000112931,5.15E-06,0.88365573,115.7518314,1937.95653,0.021986034,0.007764327
BC,1,1,1487779921,21,168,249.60,11.39,88.14489,0.000199521,0.078761339,1.365044221,0.000119846,5.47E-06,0.83750139,109.7059821,2047.662513,0.023230643,0.008203858
BC,1,1,1487808713,22,176,249.60,11.39,88.14489,0.000166256,0.065629969,1.43067419,0.000125608,5.73E-06,0.80079597,104.8978657,2152.560378,0.024420705,0.008624126
BC,1,1,1487837505,23,184,249.60,11.39,88.14489,0.000199487,0.078747899,1.509422088,0.000132522,6.05E-06,0.75137085,98.42357038,2250.983949,0.025537316,0.009018456
BC,1,1,1487866297,24,192,249.60,11.39,88.14489,0.000199487,0.078747899,1.588169987,0.000139435,6.36E-06,0.70703361,92.61574664,2343.599695,0.026588038,0.009389516
BC,1,1,1487895089,25,200,249.60,11.39,88.14489,0.000199487,0.078747899,1.666917886,0.000146349,6.68E-06,0.64398024,84.3562596,2427.955955,0.027545056,0.009727485
BC,1,1,1487923881,26,208,249.60,11.39,88.14489,0.000199521,0.078761339,1.745679225,0.000153264,6.99E-06,0.61636032,80.73827104,2508.694226,0.028461028,0.010050959
BC,1,1,1487952673,27,216,249.60,11.39,88.14489,0.000216136,0.085320304,1.830999529,0.000160755,7.34E-06,0.54767394,71.74090475,2580.435131,0.029274926,0.010338385
BC,1,1,1487981469,28,224,249.60,11.39,88.14489,0.000216102,0.085306863,1.916306393,0.000168245,7.68E-06,0.50479038,66.12350146,2646.558632,0.030025094,0.010603306
BC,1,1,1488010257,29,232,249.60,11.39,88.14489,0.000199487,0.078747899,1.995054291,0.000175158,7.99E-06,0.47389968,62.07706688,2708.635699,0.030729356,0.010852015
BC,1,1,1488039049,30,240,249.60,11.39,88.14489,0.000216136,0.085320304,2.080374595,0.000182649,8.33E-06,0.4342869,56.8881096,2765.523809,0.031374749,0.011079934
BC,1,1,1488067841,31,248,249.60,11.39,88.14489,0.000182872,0.072188934,2.152563529,0.000188987,8.62E-06,0.40939263,53.62715939,2819.150968,0.031983147,0.011294788
BC,1,1,1488096633,32,256,249.60,11.39,88.14489,0.000166222,0.065616529,2.218180058,0.000194748,8.89E-06,0.38358981,50.24719639,2869.398164,0.032553199,0.011496101
BC,1,1,1488125425,33,264,249.60,11.39,88.14489,0.000182872,0.072188934,2.290368992,0.000201086,9.18E-06,0.34034283,44.58218799,2913.980352,0.033058982,0.011674718
BC,1,1,1488154178,34,272,249.60,11.39,88.14489,0.000166256,0.065629969,2.355998961,0.000206848,9.44E-06,0.29346165,38.44112846,2952.421481,0.033495095,0.01182873
BC,1,1,1488183009,35,280,249.60,11.39,88.14489,0.000166256,0.065629969,2.42162893,0.00021261,9.70E-06,0.24694389,32.34767404,2984.769155,0.033862078,0.01195833
BC,1,1,1488211801,36,288,249.60,11.39,88.14489,0.000149607,0.059057564,2.480686494,0.000217795,9.94E-06,0.2107836,27.61096533,3012.38012,0.034175323,0.012068951
BC,1,1,1488240593,37,296,249.60,11.39,88.14489,0.000149641,0.059071004,2.539757498,0.000222981,1.02E-05,0.18443565,24.15959466,3036.539715,0.034449413,0.012165746
BC,1,1,1488269385,38,304,249.60,11.39,88.14489,0.000166256,0.065629969,2.605387468,0.000228743,1.04E-05,0.16553781,21.68412881,3058.223844,0.034695418,0.012252622
BC,1,1,1488298176,39,312,249.60,11.39,88.14489,0.000166256,0.065629969,2.671017437,0.000234505,1.07E-05,0.14773023,19.35147829,3077.575322,0.03491496,0.012330153
BC,1,1,1488326919,40,320,249.60,11.39,88.14489,0.000149641,0.059071004,2.730088441,0.000239692,1.09E-05,0.13464711,17.63769423,3095.213016,0.035115059,0.012400817
BC,1,1,1488355760,41,328,249.60,11.39,88.14489,0.000182872,0.072188934,2.802277375,0.00024603,1.12E-05,0.12247254,16.04292296,3111.255939,0.035297065,0.012465093
BC,1,1,1488384552,42,336,249.60,11.39,88.14489,0.000182872,0.072188934,2.874466309,0.000252368,1.15E-05,0.11011626,14.42434913,3125.680288,0.035460709,0.012522883
BC,1,1,1488413345,43,344,249.60,11.39,88.14489,0.000182872,0.072188934,2.946655243,0.000258705,1.18E-05,0.10212102,13.37703665,3139.057325,0.035612471,0.012576477
BC,1,1,1488442137,44,352,249.60,11.39,88.14489,0.000166256,0.065629969,3.012285212,0.000264468,1.21E-05,0.10066734,13.1866162,3152.243941,0.035762072,0.012629309
BC,1,1,1488470929,45,360,249.60,11.39,88.14489,0.000149641,0.059071004,3.071356217,0.000269654,1.23E-05,0.09903195,12.97239319,3165.216334,0.035909244,0.012681282
BC,1,1,1488499720,46,368,249.60,11.39,88.14489,0.000149641,0.059071004,3.130427221,0.00027484,1.25E-05,0.09921366,12.99619575,3178.21253,0.036056685,0.012733351
BC,1,1,1488528513,47,376,249.60,11.39,88.14489,0.000133025,0.05251204,3.182939261,0.00027945,1.28E-05,0.0944892,12.37732929,3190.589859,0.036197105,0.01278294
BC,1,1,1488557304,48,384,249.60,11.39,88.14489,0.000149641,0.059071004,3.242010265,0.000284637,1.30E-05,0.09212697,12.06789605,3202.657755,0.036334015,0.012831289
BC,1,1,1488586097,49,392,249.60,11.39,88.14489,0.000132991,0.052498599,3.294508864,0.000289246,1.32E-05,0.09303552,12.18690884,3214.844664,0.036472275,0.012880116
BC,1,1,1488614888,50,400,249.60,11.39,88.14489,0.000132991,0.052498599,3.347007463,0.000293855,1.34E-05,0.09012816,11.80606793,3226.650732,0.036606214,0.012927416
BC,1,1,1488643680,51,408,249.60,11.39,88.14489,0.000166222,0.065616529,3.412623992,0.000299616,1.37E-05,0.08867448,11.61564748,3238.26638,0.036737993,0.012973954
BC,1,1,1488672472,52,416,249.60,11.39,88.14489,0.000132991,0.052498599,3.465122591,0.000304225,1.39E-05,0.08649396,11.33001681,3249.596396,0.036866532,0.013019347
BC,1,1,1488701264,53,424,249.60,11.39,88.14489,0.000149607,0.059057564,3.524180155,0.00030941,1.41E-05,0.08449515,11.06818869,3260.664585,0.0369921,0.013063691
BC,1,1,1488730055,54,432,249.60,11.39,88.14489,0.000116376,0.045939634,3.570119789,0.000313443,1.43E-05,0.08231463,10.78255801,3271.447143,0.037114428,0.013106891
BC,1,1,1488758847,55,440,249.60,11.39,88.14489,0.000149607,0.059057564,3.629177353,0.000318628,1.45E-05,0.07940727,10.40171711,3281.84886,0.037232435,0.013148565
BC,1,1,1488787639,56,448,249.60,11.39,88.14489,0.000132991,0.052498599,3.681675953,0.000323238,1.48E-05,0.07668162,10.04467877,3291.893539,0.037346391,0.013188808
BC,1,1,1488816431,57,456,249.60,11.39,88.14489,0.000149641,0.059071004,3.740746957,0.000328424,1.50E-05,0.07577307,9.925665985,3301.819205,0.037458997,0.013228575
BC,1,1,1488845222,58,464,249.60,11.39,88.14489,8.31E-05,0.032808264,3.773555221,0.000331304,1.51E-05,0.07359255,9.64003531,3311.45924,0.037568363,0.013267197
BC,1,1,1488874014,59,472,249.60,11.39,88.14489,0.000149641,0.059071004,3.832626226,0.00033649,1.54E-05,0.07032177,9.211589296,3320.67083,0.037672868,0.013304103
BC,1,1,1488902806,60,480,249.60,11.39,88.14489,0.000166256,0.065629969,3.898256195,0.000342253,1.56E-05,0.06850467,8.973563733,3329.644393,0.037774673,0.013340055
BC,1,1,1488931598,61,488,249.60,11.39,88.14489,0.000149641,0.059071004,3.957327199,0.000347439,1.59E-05,0.06705099,8.783143282,3338.427537,0.037874317,0.013375244
BC,1,1,1488960390,62,496,249.60,11.39,88.14489,0.000166256,0.065629969,4.022957168,0.000353201,1.61E-05,0.06632415,8.687933057,3347.11547,0.037972882,0.013410052
BC,1,1,1488989182,63,504,249.60,11.39,88.14489,0.000199521,0.078761339,4.101718508,0.000360116,1.64E-05,0.06650586,8.711735613,3355.827205,0.038071716,0.013444955
BC,1,1,1489017973,64,512,249.60,11.39,88.14489,0.000149607,0.059057564,4.160776072,0.000365301,1.67E-05,0.0672327,8.806945838,3364.634151,0.03817163,0.01348024
BC,1,1,1489046765,65,520,249.60,11.39,88.14489,0.000149607,0.059057564,4.219833635,0.000370486,1.69E-05,0.06886809,9.021168845,3373.65532,0.038273975,0.013516383
BC,1,1,1489075557,66,528,249.60,11.39,88.14489,0.000166256,0.065629969,4.285463605,0.000376248,1.72E-05,0.06868638,8.997366289,3382.652686,0.03837605,0.01355243
BC,1,1,1489104349,67,536,249.60,11.39,88.14489,0.000149641,0.059071004,4.344534609,0.000381434,1.74E-05,0.06868638,8.997366289,3391.650053,0.038478125,0.013588478
BC,1,1,1489133140,68,544,249.60,11.39,88.14489,0.000166256,0.065629969,4.410164578,0.000387196,1.77E-05,0.06468876,8.47371005,3400.123763,0.038574258,0.013622427
BC,1,1,1489161933,69,552,249.60,11.39,88.14489,0.000132991,0.052498599,4.462663177,0.000391805,1.79E-05,0.06378021,8.354697268,3408.47846,0.038669042,0.0136559
BC,1,1,1489190724,70,560,249.60,11.39,88.14489,0.000132991,0.052498599,4.515161776,0.000396415,1.81E-05,0.06250824,8.188079374,3416.666539,0.038761935,0.013688705
BC,1,1,1489219516,71,568,249.60,11.39,88.14489,0.000132991,0.052498599,4.567660376,0.000401024,1.83E-05,0.05941917,7.783435917,3424.449975,0.038850238,0.013719889
BC,1,1,1489248308,72,576,249.60,11.39,88.14489,0.000132991,0.052498599,4.620158975,0.000405633,1.85E-05,0.05796549,7.593015466,3432.042991,0.038936381,0.01375031
BC,1,1,1489277100,73,584,249.60,11.39,88.14489,0.000132991,0.052498599,4.672657574,0.000410242,1.87E-05,0.05614839,7.354989903,3439.397981,0.039019823,0.013779777
BC,1,1,1489305892,74,592,249.60,11.39,88.14489,0.000149607,0.059057564,4.731715138,0.000415427,1.90E-05,0.05378616,7.045556671,3446.443537,0.039099754,0.013808005
BC,1,1,1489334684,75,600,249.60,11.39,88.14489,0.000116376,0.045939634,4.777654772,0.00041946,1.91E-05,0.05196906,6.807531108,3453.251068,0.039176985,0.013835279
BC,1,1,1489363475,76,608,249.60,11.39,88.14489,0.000132991,0.052498599,4.830153371,0.00042407,1.94E-05,0.04887999,6.40288765,3459.653956,0.039249626,0.013860932
BC,1,1,1489392267,77,616,249.60,11.39,88.14489,0.000149641,0.059071004,4.889224376,0.000429256,1.96E-05,0.04688118,6.141059531,3465.795016,0.039319296,0.013885536
BC,1,1,1489421058,78,624,249.60,11.39,88.14489,0.000132991,0.052498599,4.941722975,0.000433865,1.98E-05,0.04560921,5.974441636,3471.769457,0.039387076,0.013909472
BC,1,1,1489449850,79,632,249.60,11.39,88.14489,0.000149607,0.059057564,5.000780539,0.00043905,2.00E-05,0.04379211,5.736416073,3477.505873,0.039452155,0.013932455
BC,1,1,1489478642,80,640,249.60,11.39,88.14489,0.000132991,0.052498599,5.053279138,0.000443659,2.02E-05,0.04088475,5.355575172,3482.861448,0.039512914,0.013953912
BC,1,1,1489507434,81,648,249.60,11.39,88.14489,0.000132991,0.052498599,5.105777737,0.000448268,2.05E-05,0.0399762,5.23656239,3488.098011,0.039572322,0.013974892
BC,1,1,1489536225,82,656,249.60,11.39,88.14489,0.000149641,0.059071004,5.164848741,0.000453455,2.07E-05,0.03743226,4.903326602,3493.001337,0.03962795,0.013994537
BC,1,1,1489565017,83,664,249.60,11.39,88.14489,0.000149641,0.059071004,5.223919746,0.000458641,2.09E-05,0.03525174,4.617695926,3497.619033,0.039680338,0.014013037
BC,1,1,1489593809,84,672,249.60,11.39,88.14489,0.000166256,0.065629969,5.289549715,0.000464403,2.12E-05,0.03379806,4.427275476,3502.046309,0.039730565,0.014030775
BC,1,1,1489622601,85,680,249.60,11.39,88.14489,0.000149641,0.059071004,5.348620719,0.000469589,2.14E-05,0.03234438,4.236855025,3506.283164,0.039778632,0.01404775
BC,1,1,1489651393,86,688,249.60,11.39,88.14489,0.000133025,0.05251204,5.401132759,0.0004742,2.16E-05,0.0308907,4.046434574,3510.329598,0.039824539,0.014063961
BC,1,1,1489680185,87,696,249.60,11.39,88.14489,0.000132991,0.052498599,5.453631358,0.000478809,2.18E-05,0.02961873,3.87981668,3514.209415,0.039868555,0.014079506
BC,1,1,1489708976,88,704,249.60,11.39,88.14489,0.000166222,0.065616529,5.519247887,0.00048457,2.21E-05,0.02852847,3.737001342,3517.946416,0.039910951,0.014094478
BC,1,1,1489737768,89,712,249.60,11.39,88.14489,0.000149607,0.059057564,5.578305451,0.000489755,2.23E-05,0.0272565,3.570383448,3521.5168,0.039951457,0.014108782
BC,1,1,1489766560,90,720,249.60,11.39,88.14489,0.000149607,0.059057564,5.637363015,0.00049494,2.26E-05,0.02616624,3.42756811,3524.944368,0.039990343,0.014122515
BC,1,1,1489795352,91,728,249.60,11.39,88.14489,0.000149607,0.059057564,5.696420579,0.000500125,2.28E-05,0.02434914,3.189542547,3528.133911,0.040026528,0.014135293
BC,1,1,1489824143,92,736,249.60,11.39,88.14489,0.000149607,0.059057564,5.755478142,0.00050531,2.31E-05,0.02307717,3.022924653,3531.156835,0.040060823,0.014147405
BC,1,1,1489852935,93,744,249.60,11.39,88.14489,0.000149607,0.059057564,5.814535706,0.000510495,2.33E-05,0.02289546,2.999122096,3534.155957,0.040094848,0.01415942
BC,1,1,1489881726,94,752,249.60,11.39,88.14489,0.000166222,0.065616529,5.880152235,0.000516256,2.36E-05,0.02162349,2.832504202,3536.988461,0.040126983,0.014170769
BC,1,1,1489910518,95,760,249.60,11.39,88.14489,0.000166222,0.065616529,5.945768764,0.000522017,2.38E-05,0.02016981,2.642083752,3539.630545,0.040156957,0.014181354
BC,1,1,1489939310,96,768,249.60,11.39,88.14489,0.000166222,0.065616529,6.011385292,0.000527777,2.41E-05,0.01944297,2.546873526,3542.177419,0.040185851,0.014191558
BC,1,1,1489968102,97,776,249.60,11.39,88.14489,0.000166222,0.065616529,6.077001821,0.000533538,2.43E-05,0.01853442,2.427860745,3544.60528,0.040213395,0.014201285
BC,1,1,1489996893,98,784,249.60,11.39,88.14489,0.000166222,0.065616529,6.14261835,0.000539299,2.46E-05,0.01762587,2.308847963,3546.914127,0.040239589,0.014210535
BC,1,1,1490025685,99,792,249.60,11.39,88.14489,0.000166256,0.065629969,6.208248319,0.000545061,2.49E-05,0.01708074,2.237440294,3549.151568,0.040264972,0.0142195
BC,1,1,1490054477,100,800,249.60,11.39,88.14489,0.000182872,0.072188934,6.280437253,0.000551399,2.52E-05,0.01653561,2.166032625,3551.3176,0.040289546,0.014228178
BC,1,1,1490083269,101,808,249.60,11.39,88.14489,0.000166222,0.065616529,6.346053782,0.00055716,2.54E-05,0.01562706,2.047019844,3553.36462,0.040312769,0.014236379
BC,1,1,1490112061,102,816,249.60,11.39,88.14489,0.000166256,0.065629969,6.411683751,0.000562922,2.57E-05,0.01526364,1.999414731,3555.364035,0.040335453,0.01424439
BC,1,1,1490140853,103,824,249.60,11.39,88.14489,0.000149607,0.059057564,6.470741315,0.000568107,2.59E-05,0.01490022,1.951809618,3557.315845,0.040357596,0.014252209
BC,1,1,1490169644,104,832,249.60,11.39,88.14489,0.000149607,0.059057564,6.529798879,0.000573292,2.62E-05,0.01417338,1.856599393,3559.172444,0.040378659,0.014259648
BC,1,1,1490198436,105,840,249.60,11.39,88.14489,0.000149607,0.059057564,6.588856442,0.000578477,2.64E-05,0.01362825,1.785191724,3560.957636,0.040398912,0.0142668
BC,1,1,1490227228,106,848,249.60,11.39,88.14489,0.000149607,0.059057564,6.647914006,0.000583662,2.66E-05,0.01344654,1.761389168,3562.719025,0.040418895,0.014273857
BC,1,1,1490256020,107,856,249.60,11.39,88.14489,0.000132991,0.052498599,6.700412605,0.000588272,2.68E-05,0.01326483,1.737586611,3564.456611,0.040438608,0.014280819
BC,1,1,1490284811,108,864,249.60,11.39,88.14489,0.000149607,0.059057564,6.759470169,0.000593457,2.71E-05,0.01308312,1.713784055,3566.170396,0.04045805,0.014287685
BC,1,1,1490313603,109,872,249.60,11.39,88.14489,0.000149607,0.059057564,6.818527733,0.000598642,2.73E-05,0.0127197,1.666178942,3567.836574,0.040476953,0.01429436
BC,1,1,1490342394,110,880,249.60,11.39,88.14489,0.000166222,0.065616529,6.884144262,0.000604402,2.76E-05,0.01253799,1.642376386,3569.478951,0.040495586,0.01430094
BC,1,1,1490371186,111,888,249.60,11.39,88.14489,0.000182872,0.072188934,6.956333196,0.00061074,2.79E-05,0.01217457,1.594771273,3571.073722,0.040513678,0.01430733
BC,1,1,1490399978,112,896,249.60,11.39,88.14489,0.000182872,0.072188934,7.02852213,0.000617078,2.82E-05,0.01199286,1.570968717,3572.644691,0.040531501,0.014313624
BC,1,1,1490428770,113,904,249.60,11.39,88.14489,0.000182872,0.072188934,7.100711064,0.000623416,2.84E-05,0.01144773,1.499561048,3574.144252,0.040548513,0.014319632
BC,1,1,1490457562,114,912,249.60,11.39,88.14489,0.000166222,0.065616529,7.166327592,0.000629177,2.87E-05,0.01126602,1.475758492,3575.62001,0.040565256,0.014325544
BC,1,1,1490486354,115,920,249.60,11.39,88.14489,0.000182872,0.072188934,7.238516526,0.000635515,2.90E-05,0.01126602,1.475758492,3577.095769,0.040581998,0.014331457
BC,1,1,1490515146,116,928,249.60,11.39,88.14489,0.000182872,0.072188934,7.31070546,0.000641853,2.93E-05,0.01126602,1.475758492,3578.571527,0.040598741,0.014337369
BC,1,1,1490543938,117,936,249.60,11.39,88.14489,0.000166222,0.065616529,7.376321989,0.000647614,2.96E-05,0.0109026,1.428153379,3579.999681,0.040614943,0.014343091
BC,1,1,1490572729,118,944,249.60,11.39,88.14489,0.000182872,0.072188934,7.448510923,0.000653952,2.98E-05,0.01072089,1.404350823,3581.404032,0.040630875,0.014348718
BC,1,1,1490601521,119,952,249.60,11.39,88.14489,0.000166222,0.065616529,7.514127452,0.000659713,3.01E-05,0.01072089,1.404350823,3582.808382,0.040646808,0.014354344
BC,1,1,1490630313,120,960,249.60,11.39,88.14489,0.000199487,0.078747899,7.59287535,0.000666626,3.04E-05,0.01035747,1.35674571,3584.165128,0.0406622,0.01435978
BC,1,1,1490659105,121,968,249.60,11.39,88.14489,0.000199487,0.078747899,7.671623249,0.00067354,3.07E-05,0.01035747,1.35674571,3585.521874,0.040677592,0.014365215
BC,1,1,1490687897,122,976,249.60,11.39,88.14489,0.000199487,0.078747899,7.750371148,0.000680454,3.11E-05,0.01035747,1.35674571,3586.87862,0.040692984,0.014370651
BC,1,1,1490716690,123,984,249.60,11.39,88.14489,0.000182872,0.072188934,7.822560082,0.000686792,3.13E-05,0.00999405,1.309140598,3588.18776,0.040707836,0.014375896
BC,1,1,1490745481,124,992,249.60,11.39,88.14489,0.000182906,0.072202374,7.894762456,0.000693131,3.16E-05,0.01035747,1.35674571,3589.544506,0.040723229,0.014381332
BC,1,1,1490774274,125,1000,249.60,11.39,88.14489,0.000166256,0.065629969,7.960392425,0.000698893,3.19E-05,0.01035747,1.35674571,3590.901252,0.040738621,0.014386768
BC,1,1,1490803066,126,1008,249.60,11.39,88.14489,0.000166256,0.065629969,8.026022394,0.000704655,3.22E-05,0.01035747,1.35674571,3592.257997,0.040754013,0.014392203
BC,1,1,1490831858,127,1016,249.60,11.39,88.14489,0.000166256,0.065629969,8.091652364,0.000710417,3.24E-05,0.01035747,1.35674571,3593.614743,0.040769405,0.014397639
BC,1,1,1490860650,128,1024,249.60,11.39,88.14489,0.000166256,0.065629969,8.157282333,0.000716179,3.27E-05,0.00999405,1.309140598,3594.923884,0.040784257,0.014402884
BC,1,1,1490889442,129,1032,249.60,11.39,88.14489,0.000166256,0.065629969,8.222912302,0.000721941,3.29E-05,0.00963063,1.261535485,3596.185419,0.040798569,0.014407938
BC,1,1,1490918234,130,1040,249.60,11.39,88.14489,0.000166256,0.065629969,8.288542271,0.000727703,3.32E-05,0.01017576,1.332943154,3597.518362,0.040813692,0.014413279
BC,1,1,1490947025,131,1048,249.60,11.39,88.14489,0.000182872,0.072188934,8.360731205,0.000734041,3.35E-05,0.00999405,1.309140598,3598.827503,0.040828544,0.014418524
BC,1,1,1490975817,132,1056,249.60,11.39,88.14489,0.000166222,0.065616529,8.426347734,0.000739802,3.38E-05,0.00981234,1.285338041,3600.112841,0.040843126,0.014423673
BC,1,1,1491004561,133,1064,249.60,11.39,88.14489,0.000182872,0.072188934,8.498536668,0.00074614,3.40E-05,0.00981234,1.285338041,3601.398179,0.040857708,0.014428823
BC,1,1,1491033400,134,1072,249.60,11.39,88.14489,0.000166256,0.065629969,8.564166637,0.000751902,3.43E-05,0.00944892,1.237732929,3602.635912,0.04087175,0.014433782
BC,1,1,1491062193,135,1080,249.60,11.39,88.14489,0.000182872,0.072188934,8.636355571,0.00075824,3.46E-05,0.00926721,1.213930372,3603.849842,0.040885522,0.014438646
BC,1,1,1491090985,136,1088,249.60,11.39,88.14489,0.000182872,0.072188934,8.708544505,0.000764578,3.49E-05,0.00963063,1.261535485,3605.111378,0.040899834,0.0144437
BC,1,1,1491119777,137,1096,249.60,11.39,88.14489,0.000182872,0.072188934,8.780733439,0.000770916,3.52E-05,0.00963063,1.261535485,3606.372913,0.040914146,0.014448754
BC,1,1,1491148569,138,1104,249.60,11.39,88.14489,0.000182872,0.072188934,8.852922373,0.000777254,3.55E-05,0.00926721,1.213930372,3607.586844,0.040927918,0.014453618
BC,1,1,1491177361,139,1112,249.60,11.39,88.14489,0.000199487,0.078747899,8.931670271,0.000784168,3.58E-05,0.00963063,1.261535485,3608.848379,0.04094223,0.014458672
BC,1,1,1491206153,140,1120,249.60,11.39,88.14489,0.000166256,0.065629969,8.997300241,0.00078993,3.60E-05,0.00944892,1.237732929,3610.086112,0.040956272,0.014463631
BC,1,1,1491234945,141,1128,249.60,11.39,88.14489,0.000166256,0.065629969,9.06293021,0.000795692,3.63E-05,0.0090855,1.190127816,3611.27624,0.040969774,0.014468399
BC,1,1,1491263737,142,1136,249.60,11.39,88.14489,0.000182872,0.072188934,9.135119144,0.00080203,3.66E-05,0.00926721,1.213930372,3612.49017,0.040983546,0.014473263
BC,1,1,1491292529,143,1144,249.60,11.39,88.14489,0.000199487,0.078747899,9.213867042,0.000808944,3.69E-05,0.00890379,1.16632526,3613.656495,0.040996778,0.014477935
BC,1,1,1491321321,144,1152,249.60,11.39,88.14489,0.000199487,0.078747899,9.292614941,0.000815857,3.72E-05,0.00890379,1.16632526,3614.822821,0.04101001,0.014482608
BC,1,1,1491350113,145,1160,249.60,11.39,88.14489,0.000199487,0.078747899,9.37136284,0.000822771,3.75E-05,0.00890379,1.16632526,3615.989146,0.041023242,0.014487281